Content
SEND FEEDBACK

Daily
Averages
Monthly
Summary
United States of America

WILMINGTON, NORTH CAROLINA


Home > North America > United States > North Carolina
Elevation: 72 feet     Latitude: 34 16N     Longitude: 077 54W

WEATHER
 
SELECT A DAY
Number of Records: 212,549;   Date Range: 1/1/95 - 10/30/14
 
SHARE

PRINT THIS DATA

[ ← Previous Day ]
WEATHER ALMANAC - JANUARY 11, 2014
[ Next Day → ]
[ °C ]   °F
Weather ElementAverageHighLow
Temperature66.8 °F75.2 °F (11:56 am)60.1 °F (6:53 pm)
Dewpoint62.2 °F69.1 °F (10:53 am)55 °F (5:53 pm)
Humidity85.4 %93 % (7:53 pm)77 % (5:32 pm)
Barometer29.85 in30.09 in (12:53 am)29.68 in (8:45 pm)
Wind Speed11.9 mph27.6 mph (3:25 pm)
Wind Gust38 mph (1:53 pm)
Weather ElementAverage
Visibility8 mi
Wind DirectionSW (222.3 °)

Weather ElementTotal
Precipitation2.91 in
Cooling Degree Days2.7 (Base 65)
Growing Degree Days17.7 (Base 50)
Averaged from 53 records on January 11, 2014
WEATHER CONDITIONS BREAKOUT
WIND DIRECTION BREAKOUT
WEATHER BY HOUR - JANUARY 11, 2014
[ °C ]   °F
Local TimeTemperatureDewpointHumidityBarometerVisibilityWind DirectionWind SpeedGust SpeedPrecipitationEventsConditions
12:53 AM68.0 °F64.0 °F87 %30.09 in10.0 miSouth (180°)9.2 mphMostly Cloudy
1:22 AM68.0 °F64.4 °F88 %30.07 in10.0 miSouth (180°)12.7 mphOvercast
1:43 AM66.2 °F62.6 °F88 %30.06 in10.0 miSouth (180°)8.1 mph18.4 mphScattered Clouds
1:50 AM66.2 °F62.6 °F88 %30.06 in10.0 miSouth (180°)10.4 mph16.1 mphMostly Cloudy
1:53 AM66.9 °F64.0 °F90 %30.06 in10.0 miSouth (180°)8.1 mphMostly Cloudy
2:22 AM66.2 °F62.6 °F88 %30.05 in10.0 miSouth (170°)6.9 mphScattered Clouds
2:53 AM66.0 °F61.0 °F84 %30.05 in10.0 miSouth (180°)12.7 mphScattered Clouds
3:53 AM66.9 °F63.0 °F87 %30.01 in10.0 miSouth (170°)8.1 mphClear
4:53 AM68.0 °F64.9 °F90 %29.99 in10.0 miSouth (180°)10.4 mphClear
5:53 AM69.1 °F64.0 °F84 %29.98 in10.0 miSouth (180°)12.7 mphMostly Cloudy
6:26 AM69.8 °F64.4 °F83 %29.98 in10.0 miSSW (200°)13.8 mph0.00 inOvercast
6:41 AM69.8 °F66.2 °F88 %29.98 in8.0 miSSW (200°)9.2 mph0.01 inRainLight Rain
6:53 AM69.1 °F66.0 °F90 %29.98 in9.0 miSSW (200°)9.2 mph0.01 inRainLight Rain
7:07 AM69.8 °F66.2 °F88 %29.98 in10.0 miSSW (210°)10.4 mph19.6 mph0.00 inOvercast
7:53 AM69.1 °F66.0 °F90 %29.97 in10.0 miSSW (200°)12.7 mph0.00 inOvercast
8:45 AM69.8 °F66.2 °F88 %29.96 in9.0 miSSW (210°)13.8 mph0.01 inRainLight Rain
8:53 AM71.1 °F66.9 °F87 %29.96 in10.0 miSSW (200°)13.8 mph23.0 mph0.01 inOvercast
9:53 AM73.0 °F68.0 °F84 %29.94 in10.0 miSSW (210°)17.3 mph24.2 mph0.00 inOvercast
10:17 AM73.4 °F66.2 °F78 %29.94 in10.0 miSSW (210°)17.3 mph26.5 mphOvercast
10:53 AM73.9 °F69.1 °F85 %29.91 in7.0 miSSW (200°)13.8 mph28.8 mph0.01 inRainLight Rain
11:53 AM75.0 °F68.0 °F79 %29.86 in8.0 miSSW (210°)17.3 mph29.9 mph0.00 inOvercast
11:56 AM75.2 °F68.0 °F78 %29.86 in1.8 miSSW (210°)18.4 mph27.6 mph0.00 inRainHeavy Rain
12:04 PM73.4 °F68.0 °F83 %29.85 in1.2 miSSW (200°)15.0 mph26.5 mph0.13 inRainLight Rain
12:06 PM73.4 °F68.0 °F83 %29.85 in3.0 miSSW (210°)15.0 mph26.5 mph0.13 inRainLight Rain
12:25 PM71.6 °F68.0 °F88 %29.83 in3.0 miSSW (200°)18.4 mph29.9 mph0.16 inRainLight Rain
12:53 PM73.0 °F69.1 °F87 %29.80 in10.0 miSSW (200°)15.0 mph31.1 mph0.16 inOvercast
1:24 PM75.2 °F68.0 °F78 %29.77 in10.0 miSSW (210°)26.5 mph36.8 mphOvercast
1:53 PM75.0 °F68.0 °F79 %29.75 in10.0 miSSW (210°)25.3 mph38.0 mph0.00 inOvercast
2:53 PM73.0 °F66.0 °F79 %29.75 in10.0 miSSW (210°)20.7 mph35.7 mphOvercast
3:25 PM71.6 °F66.2 °F83 %29.74 in10.0 miSW (220°)27.6 mph34.5 mph0.00 inOvercast
3:53 PM70.0 °F64.9 °F84 %29.75 in10.0 miSW (220°)16.1 mph31.1 mph0.00 inOvercast
4:53 PM69.1 °F64.9 °F87 %29.74 in10.0 miSSW (200°)13.8 mph25.3 mphOvercast
5:32 PM64.4 °F57.2 °F77 %29.76 in10.0 miWest (280°)8.1 mph27.6 mphOvercast
5:41 PM62.6 °F55.4 °F77 %29.76 in10.0 miWNW (290°)15.0 mph23.0 mphOvercast
5:53 PM62.1 °F55.0 °F78 %29.75 in10.0 miWNW (300°)8.1 mph21.9 mphOvercast
6:17 PM60.8 °F55.4 °F82 %29.76 in1.8 miWNW (300°)9.2 mph0.14 inRainHeavy Rain
6:22 PM60.8 °F55.4 °F82 %29.76 in3.0 miWNW (290°)8.1 mph0.18 inRainRain
6:24 PM60.8 °F55.4 °F82 %29.76 in2.5 miWNW (290°)10.4 mph0.18 inRain-ThunderstormRain
6:32 PM60.8 °F55.4 °F82 %29.75 in1.8 miWest (280°)6.9 mph0.30 inRain-ThunderstormRain
6:39 PM60.8 °F55.4 °F82 %29.75 in3.0 miWNW (290°)9.2 mph0.35 inRain-ThunderstormRain
6:48 PM60.8 °F57.2 °F88 %29.75 in1.8 miWest (260°)8.1 mph0.41 inRain-ThunderstormHeavy Thunderstorms and Rain
6:53 PM60.1 °F57.0 °F90 %29.74 in2.0 miWest (260°)6.9 mph0.45 inRain-ThunderstormHeavy Thunderstorms and Rain
7:03 PM60.8 °F57.2 °F88 %29.73 in6.0 miWest (260°)5.8 mph0.03 inRainLight Rain
7:13 PM60.8 °F57.2 °F88 %29.74 in7.0 miSW (220°)4.6 mph0.04 inRain-ThunderstormLight Thunderstorms and Rain
7:28 PM60.8 °F57.2 °F88 %29.74 in7.0 miSSW (210°)6.9 mph0.08 inRainRain
7:53 PM60.1 °F57.9 °F93 %29.70 in8.0 miSW (220°)6.9 mph0.12 inRainLight Rain
8:45 PM60.8 °F57.2 °F88 %29.68 in10.0 miWest (260°)6.9 mph0.00 inScattered Clouds
8:53 PM60.1 °F57.9 °F93 %29.68 in10.0 miWest (260°)4.6 mph0.00 inScattered Clouds
9:09 PM60.8 °F57.2 °F88 %29.69 in10.0 miWSW (250°)5.8 mphMostly Cloudy
9:53 PM62.1 °F59.0 °F90 %29.70 in10.0 miWSW (250°)11.5 mphOvercast
10:53 PM61.0 °F57.9 °F90 %29.71 in10.0 miWSW (240°)8.1 mphMostly Cloudy
11:34 PM60.8 °F57.2 °F88 %29.71 in10.0 miSW (230°)9.2 mphScattered Clouds
11:53 PM61.0 °F57.9 °F90 %29.72 in10.0 miSW (220°)9.2 mphMostly Cloudy
Hourly data recorded from KILM, located miles away from Wilmington, North Carolina







STORIES FROM OUR PARTNERS